Regional Weather Roundup
Issued by NWS

Home | Current Version | Previous Version | Graphics & Text | Print | Product List | Glossary On
Versions: 1 2 3 4 5 6 7 8 9 10 11 12 13 14 15 16 17 18 19 20 21 22 23 24 25 26 27 28 29 30 31 32 33 34 35 36 37 38 39 40 41 42 43 44 45 46 47 48 49 50
000
ASUS43 KLMK 030902
RWRKY
KENTUCKY REGIONAL WEATHER ROUNDUP
NATIONAL WEATHER SERVICE LOUISVILLE KY
400 AM EST SAT DEC 03 2016

NOTE "FAIR" INDICATES FEW OR NO CLOUDS BELOW 12,000 FEET
WITH NO SIGNIFICANT WEATHER AND/OR OBSTRUCTIONS TO VISIBILITY.

KYZ001>023-026-027-061>063-070>075-031000-
WESTERN AND SOUTH CENTRAL KENTUCKY

CITY           SKY/WX    TMP DP  RH WIND       PRES   REMARKS
PADUCAH        NOT AVBL
HENDERSON      CLOUDY    28  25  86 CALM      30.37S
OWENSBORO      NOT AVBL
HOPKINSVILLE   MOCLDY    37  31  80 N3        30.35R
BOWLING GREEN  NOT AVBL
GLASGOW        CLOUDY    32  32 100 CALM      30.34S
$$

KYZ024-025-028>034-038-045-046-053-031000-
NORTH CENTRAL KENTUCKY

CITY           SKY/WX    TMP DP  RH WIND       PRES   REMARKS
LOUISVILLE/SDF CLOUDY    41  29  62 NW3       30.35F
LOUISVILLE/LOU CLOUDY    41  31  67 NW3       30.36S
FORT KNOX      CLOUDY    38  31  76 N1        30.32F
$$

KYZ035>037-039>044-047>052-055>060-089>105-031000-
NORTHEAST KENTUCKY

CITY           SKY/WX    TMP DP  RH WIND       PRES   REMARKS
LEXINGTON      CLOUDY    39  30  70 CALM      30.33R
COVINGTON      CLOUDY    36  35  96 CALM      30.32R
FRANKFORT      CLOUDY    39  31  72 CALM      30.33S
$$

KYZ054-064>069-076>088-106>120-031000-
SOUTHEAST KENTUCKY

CITY           SKY/WX    TMP DP  RH WIND       PRES   REMARKS
JACKSON        CLOUDY    35  29  78 CALM      30.31F
LONDON         MOCLDY    31  27  85 CALM      30.32S
SOMERSET       CLOUDY    30  30 100 CALM      30.34F
MIDDLESBORO    PTCLDY    30  28  95 CALM      30.32F
MONTICELLO     NOT AVBL
$$





USA.gov is the U.S. government's official web portal to all federal, state and local government web resources and services.